Overview Statistics Trail Chart Weather Telemetry Raw packets
 

This is the latest recevied weather packets stored in our database for station/object UHMA. If no packets are shown the sender has not sent any weather packets the latest 10 day(s).

<< 32 33 34 35 36 37 38 >>
Time Temp. Humidity Pressure Rain* Wind** Luminosity Snow
1787967823 17.78° C 52% 1003 hPa - - - -
1787967223 16.67° C 51% 1003 hPa - - - -
1787966625 16.67° C 51% 1003 hPa - - - -
1787966024 16.67° C 51% 1003 hPa - - - -
1787965426 16.67° C 51% 1003 hPa - - - -
1787964825 16.67° C 51% 1003 hPa - - - -
1787964226 16.67° C 51% 1003 hPa - - - -
1787963627 16.67° C 51% 1003 hPa - - - -
1787963028 16.67° C 51% 1003 hPa - - - -
1787962426 16.67° C 51% 1003 hPa - - - -
1787961831 15.56° C 59% 1003 hPa - - - -
1787961228 15.56° C 59% 1003 hPa - - - -
1787960627 15.56° C 59% 1003 hPa - - - -
1787960027 15.56° C 59% 1003 hPa - - - -
1787959426 15.56° C 59% 1003 hPa - - - -
1787958827 15.56° C 59% 1003 hPa - - - -
1787958226 15.56° C 55% 1003 hPa - - - -
1787957626 15.56° C 55% 1003 hPa - - - -
1787957024 15.56° C 55% 1003 hPa - - - -
1787956426 15° C 62% 1003 hPa - - - -
1787955829 15° C 62% 1003 hPa - - - -
1787955226 15° C 62% 1003 hPa - - - -
1787954627 15.56° C 59% 1003 hPa - - - -
1787954027 13.89° C 67% 1003 hPa - - - -
1787953426 13.89° C 67% 1003 hPa - - - -

* Rain since midnight (hover to see other rain measurements)
** Current wind speed in m/s (hover to see current wind gust speed)